This is the latest recevied weather packets stored in our database for station/object W0JRT-6. If no packets are shown the sender has not sent any weather packets the latest 10 day(s).
| Time | Temp. | Humidity | Pressure | Rain* | Wind** | Luminosity | Snow |
|---|---|---|---|---|---|---|---|
| 1777872610 | 16.11° C | 69% | 1003.5 hPa | 0 mm | - | - | - |
| 1777872005 | 16.67° C | 69% | 1003.6 hPa | 0 mm | - | - | - |
| 1777871413 | 17.22° C | 67% | 1003.6 hPa | 0 mm | - | - | - |
| 1777870799 | 18.33° C | 61% | 1003.9 hPa | 0 mm | - | - | - |
| 1777870213 | 16.67° C | 65% | 1004 hPa | 0 mm | - | - | - |
| 1777869599 | 16.67° C | 75% | 1004.2 hPa | 0 mm | - | - | - |
| 1777869001 | 17.22° C | 68% | 1004.5 hPa | 0 mm | - | - | - |
| 1777868399 | 16.11° C | 78% | 1004.7 hPa | 0 mm | - | - | - |
| 1777867799 | 15.56° C | 81% | 1004.7 hPa | 0 mm | - | - | - |
| 1777867202 | 15.56° C | 78% | 1004.6 hPa | 0 mm | - | - | - |
| 1777866600 | 15° C | 84% | 1004.7 hPa | 0 mm | - | - | - |
| 1777865403 | 15° C | 83% | 1004.5 hPa | 0 mm | - | - | - |
| 1777864804 | 15° C | 81% | 1004.4 hPa | 0 mm | - | - | - |
| 1777864211 | 15.56° C | 81% | 1004.2 hPa | 0 mm | - | - | - |
| 1777862998 | 16.11° C | 74% | 1003.9 hPa | 0 mm | - | - | - |
| 1777861801 | 16.67° C | 71% | 1003.7 hPa | 0 mm | - | - | - |
| 1777861203 | 17.22° C | 69% | 1003.6 hPa | 0 mm | - | - | - |
| 1777860600 | 17.22° C | 69% | 1003.5 hPa | 0 mm | - | - | - |
| 1777859998 | 17.78° C | 72% | 1003.2 hPa | 0 mm | - | - | - |
| 1777858202 | 20.56° C | 59% | 1002.5 hPa | 0 mm | - | - | - |
| 1777857610 | 20.56° C | 53% | 1002.2 hPa | 0 mm | - | - | - |
| 1777856399 | 21.67° C | 51% | 1002 hPa | 0 mm | - | - | - |
| 1777855800 | 22.22° C | 49% | 1001.9 hPa | 0 mm | - | - | - |
| 1777855198 | 23.33° C | 48% | 1001.9 hPa | 0 mm | - | - | - |
| 1777854605 | 23.33° C | 47% | 1001.7 hPa | 0 mm | - | - | - |
* Rain since midnight (hover to see other rain measurements)
** Current wind speed in m/s (hover to see current wind gust speed)